Regional Weather Roundup
Issued by NWS

Home | Current Version | Previous Version | Text Only | Print | Product List | Glossary Off
Versions: 1 2 3 4 5 6 7 8 9 10 11 12 13 14 15 16 17 18 19 20 21 22 23 24 25 26 27 28 29 30 31 32 33 34 35 36 37 38 39 40 41 42 43 44 45 46 47 48 49 50

000
ASUS43 KLOT 230809
RWRIL

ILLINOIS REGIONAL WEATHER ROUNDUP
NATIONAL WEATHER SERVICE CHICAGO/ROMEOVILLE IL
300 AM CDT FRI JUN 23 2017

NOTE: "FAIR" INDICATES FEW OR NO CLOUDS BELOW 12,000 FEET WITH NO
SIGNIFICANT WEATHER AND/OR OBSTRUCTIONS TO VISIBILITY.

* THESE STATIONS ARE NOT UNDER NWS QUALITY CONTROL. THEY ALSO MAY NOT
  REPORT WEATHER SUCH AS PRECIPITATION OR FOG.

ILZ001-002-007-009-015-016-024-230900-
NORTHWEST ILLINOIS

CITY           SKY/WX    TMP DP  RH WIND       PRES   REMARKS
MOLINE         CLOUDY    77  71  82 S7        29.64R
SAVANNA*       TSTM      68  66  95 NW10G20   29.68R
$$

ILZ003-004-008-010-011-017-018-230900-
NORTH CENTRAL ILLINOIS

CITY           SKY/WX    TMP DP  RH WIND       PRES   REMARKS
ROCKFORD       CLOUDY    77  72  84 SW14      29.64F
FREEPORT*      TSTM      73  70  92 W22G46    29.69R
ROCHELLE*      CLOUDY    73  72  95 SW15      29.65S
DE KALB*       CLOUDY    74  72  93 SW14      29.66F
PERU*          CLOUDY    74  71  91 SW12      29.66F
$$

ILZ005-006-012>014-019>023-230900-
NORTHEAST ILLINOIS

CITY           SKY/WX    TMP DP  RH WIND       PRES   REMARKS
CHICAGO-OHARE  CLOUDY    76  70  82 SW13G21   29.64F
CHICAGO-MIDWAY CLOUDY    76  72  87 SW10      29.65S
AURORA         CLOUDY    75  73  93 SW13      29.66F
LANSING*       CLOUDY    74  69  85 SW10      29.67S
JOLIET*        CLOUDY    76  74  92 SW8       29.66F
WAUKEGAN       MOCLDY    73  72  96 SW13      29.62F
DUPAGE AIRPORT CLOUDY    75  73  93 SW14G21   29.64F
WHEELING       CLOUDY    76  73  91 SW12G20   29.65F
MORRIS*        CLOUDY    75  72  88 SW12      29.65F
ROMEOVILLE*    CLOUDY    74  70  86 SW13G18   29.66F
NORTHERLY ISL    N/A     75  69  81 SW8         N/A
$$

LMZ740>746-230900-
SOUTHERN LAKE MICHIGAN

STATION/POSITION SKY/WX   TEMP    WIND        PRES    VSBY  WAVE
                          AIR SEA DIR/SP/G                  HT/PER
                          (F)     (DEG/KT/KT) (MB)    (MI)  (FT/S)
SOUTHERN BUOY              65 61  210/ 12/ 14 1003.0F         3/ 4
WILMETTE HARBOR            72 63  220/ 10/ 16   N/A           2/ 3
HARRISON CRIB              75     210/ 17/ 21   N/A
BURNHAM HARBOR             75                   N/A
CALUMET HARBOR             74     200/  9/ 15 1003.9F
BURNS HARBOR               74     220/ 13/ 17 1005.1F
MICHIGAN CITY              73     190/ 13/ 15   N/A
MICHIGAN CITY 6N           71 68  220/ 10/ 12   N/A           2/ 3
ST. JOSEPH                 71 69  230/ 10/ 12 1004.3          2/ 4
$$

ILZ025>027-034>036-040-047-049-050-058-095>099-230900-
WEST-CENTRAL ILLINOIS

CITY           SKY/WX    TMP DP  RH WIND       PRES   REMARKS
QUINCY         CLEAR     75  72  90 S8        29.68F
GALESBURG*     CLEAR     74  71  91 S13       29.66F
MACOMB*        PTCLDY    73  72  96 SW12      29.69F
JACKSONVILLE*  CLOUDY    75  73  93 S8        29.69F
PITTSFIELD*    CLOUDY    76  74  92 S9        29.70F
$$

ILZ028>032-037-038-041>044-048-051>054-059>061-230900-
CENTRAL ILLINOIS

CITY           SKY/WX    TMP DP  RH WIND       PRES   REMARKS
PONTIAC        CLOUDY    75  75  98 SW9       29.68S
BLOOMINGTON    LGT RAIN  74  72  93 S13       29.70F
DECATUR        CLOUDY    74  73  97 S12       29.71F
PEORIA         CLOUDY    75  74  96 SW12      29.67F
LACON*         CLOUDY    75  74  94 SW6       29.66R
LINCOLN*       CLOUDY    76  75  96 S8        29.69F
SPRINGFIELD    CLOUDY    77  75  93 S7        29.70F
TAYLORVILLE    CLOUDY    74  74  99 S7        29.72F
$$

ILZ033-039-045-046-055>057-062-063-230900-
EAST-CENTRAL ILLINOIS

CITY           SKY/WX    TMP DP  RH WIND       PRES   REMARKS
CHAMPAIGN      CLOUDY    74  72  93 S12       29.71F
RANTOUL*       CLOUDY    75  74  95 SW7       29.71F
MATTOON        CLOUDY    76  75  97 SW9       29.72F
PARIS*         LGT RAIN  74  73  97 S7        29.73F
$$

ILZ079-100>102-230900-
SOUTHWEST ILLINOIS

CITY           SKY/WX    TMP DP  RH WIND       PRES   REMARKS
ALTON          CLOUDY    75  73  95 S5        29.73F
BELLEVILLE     MOCLDY    76  74  94 SW5       29.73F
CAHOKIA*       PTCLDY    77  73  87 S3        29.72F
SPARTA*        CLOUDY    76  73  90 SW3       29.75S
$$

ILZ064>066-069>071-074>076-080>082-084>086-088>090-092>094-230900-
SOUTH-CENTRAL ILLINOIS

CITY           SKY/WX    TMP DP  RH WIND       PRES   REMARKS
CARBONDALE     CLOUDY    76  76 100 SW5       29.74S
CAIRO*         CLOUDY    76  74  93 S14       29.73S
EFFINGHAM*     CLOUDY    76  75  98 S7        29.75F
MARION         RAIN      77  75  94 SE3       29.76R
MT. VERNON     CLOUDY    76  74  93 S5        29.74F
CENTRALIA*     CLOUDY    76  76  97 S6        29.74S
SALEM*         CLOUDY    77  74  91 S6        29.75S
METROPOLIS*    CLOUDY    77  74  88 S12       29.75F
$$

ILZ067-068-072-073-078-083-087-091-230900-
SOUTHEAST ILLINOIS

CITY           SKY/WX    TMP DP  RH WIND       PRES   REMARKS
LAWRENCEVILLE  CLOUDY    75  73  93 S8        29.75S
FLORA*         CLOUDY   N/A N/A N/A S5        29.75S
FAIRFIELD*     CLOUDY    76  75  98 CALM      29.74S
HARRISBURG*    LGT RAIN  76  75  96 S5        29.76S
ROBINSON*      CLOUDY    74  73  95 S9        29.76S
CARMI*         LGT RAIN  75  75  98 S7        29.75S
$$

ABBREVIATIONS USED IN REMARKS
   TC - TEMPERATURE IN CELSIUS
  WCI - WIND CHILL INDEX
   HX - HEAT INDEX
  VSB - VISIBILITY
$$





USA.gov is the U.S. government's official web portal to all federal, state and local government web resources and services.